Regional Weather Roundup
Issued by NWS Columbia, SC

Home | Current Version | Previous Version | Text Only | Print | Product List | Glossary On
Versions: 1 2 3 4 5 6 7 8 9 10 11 12 13 14 15 16 17 18 19 20 21 22 23 24 25 26 27 28
000
ASUS42 KCAE 201810
RWRCAE
REGIONAL WEATHER ROUNDUP
NATIONAL WEATHER SERVICE COLUMBIA SC
100 PM EST MON NOV 20 2017

NOTE: "FAIR" INDICATES FEW OR NO CLOUDS BELOW 12,000 FEET WITH NO
SIGNIFICANT WEATHER AND/OR OBSTRUCTIONS TO VISIBILITY.

NOT ALL STATIONS ARE QUALITY CONTROLLED BY THE NATIONAL
WEATHER SERVICE. USE DATA WITH CAUTION...ESPECIALLY
DEWPOINT OBSERVATIONS.

SCZ001>056-GAZ040-063>065-077-201900-
...UPSTATE SOUTH CAROLINA...

CITY           SKY/WX    TMP DP  RH WIND       PRES   REMARKS
ANDERSON       SUNNY     54  30  40 SW5       30.23F
6HR MIN TEMP:  28; 6HR MAX TEMP:  55;

LIBERTY        CLEAR     55  29  37 CALM      30.21F
6HR MIN TEMP:  24; 6HR MAX TEMP:  55;

SPARTANBURG    SUNNY     54  23  30 CALM      30.23F
CLEMSON        SUNNY     53  27  36 VRB5      30.23F
6HR MIN TEMP:  30; 6HR MAX TEMP:  53;

GREENVILLE     SUNNY     55  27  34 S5        30.23F
6HR MIN TEMP:  31; 6HR MAX TEMP:  56;

GREENWOOD      SUNNY     55  30  38 SE8       30.26F
6HR MIN TEMP:  26; 6HR MAX TEMP:  55;

GREER          SUNNY     54  27  35 SE3       30.23F
6HR MIN TEMP:  31; 6HR MAX TEMP:  54;

ROCK HILL      SUNNY     54  25  32 CALM      30.24F
6HR MIN TEMP:  26; 6HR MAX TEMP:  54;

CHESTER        CLEAR     54  23  30 CALM      30.25F
LAURENS        CLEAR     54  28  37 S3        30.25S


...CENTRAL SOUTH CAROLINA...

CITY           SKY/WX    TMP DP  RH WIND       PRES   REMARKS
COLUMBIA APT   MOSUNNY   58  28  32 CALM      30.24F
6HR MIN TEMP:  30; 6HR MAX TEMP:  59;

COLUMBIA OWENS SUNNY     58  25  28 VRB5      30.26F
6HR MIN TEMP:  32; 6HR MAX TEMP:  58;

MCENTIRE ANGB  SUNNY     59  24  26 NE5       30.25F
6HR MIN TEMP:  27; 6HR MAX TEMP:  59;

ORANGEBURG     SUNNY     58  29  33 NE7       30.24F
6HR MIN TEMP:  31; 6HR MAX TEMP:  58; 6HR PCP: TRACE;

SUMTER SHAW    SUNNY     59  26  29 NE5       30.23F
6HR MIN TEMP:  31; 6HR MAX TEMP:  59;

NEWBERRY       CLEAR     55  28  35 CALM      30.27F
AIKEN          FAIR      55  28  35 NE5       30.27F
BARNWELL         N/A     59  28  31 S3        30.24F
MANNING        FAIR      57   3  11 MISG      30.25F
CAMDEN         FAIR      57  25  28 CALM      30.25F
LANCASTER      CLEAR     55  23  28 NE3       30.25F
WINNSBORO      CLEAR     55  28  35 CALM      30.25F


...EASTERN AND COASTAL SOUTH CAROLINA...

CITY           SKY/WX    TMP DP  RH WIND       PRES   REMARKS
MYRTLE BEACH   SUNNY     58  28  32 N8        30.25F
6HR MIN TEMP:  34; 6HR MAX TEMP:  59;

N MYRTLE BCH   SUNNY     59  27  29 NE10      30.23F
6HR MIN TEMP:  35; 6HR MAX TEMP:  59;

CONWAY         FAIR      57  28  33 NE7       30.25F HAZE
MARION         FAIR      55  25  30 N5        30.25F
HARTSVILLE     FAIR      57  23  26 E3        30.24F
FLORENCE       SUNNY     59  25  27 N8        30.25F
6HR MIN TEMP:  32; 6HR MAX TEMP:  59;

DARLINGTON     SUNNY     58  24  27 VRB3      30.26F
6HR MIN TEMP:  25; 6HR MAX TEMP:  58;

CHARLESTON APT SUNNY     59  30  33 N5        30.24F
6HR MIN TEMP:  36; 6HR MAX TEMP:  60;

MOUNT PLEASANT FAIR      59  32  36 CALM      30.24F
WALTERBORO     CLEAR     59  32  36 CALM      30.25F
BEAUFORT       MOSUNNY   59  34  39 E6        30.25F
6HR MIN TEMP:  38; 6HR MAX TEMP:  59;



...EASTERN GEORGIA...

CITY           SKY/WX    TMP DP  RH WIND       PRES   REMARKS
AUGUSTA BUSH F SUNNY     60  27  28 VRB6      30.23F
6HR MIN TEMP:  28; 6HR MAX TEMP:  60;

AUGUSTA DANIEL SUNNY     58  28  32 NE7       30.24F
6HR MIN TEMP:  36; 6HR MAX TEMP:  59;

THOMSON        SUNNY     56  28  34 S5        30.29F
6HR MIN TEMP:  26; 6HR MAX TEMP:  56;

WASHINGTON     FAIR      55  32  41 SE5       30.23F
CLAXTON        FAIR      62  33  33 NE3       30.23F
6HR MIN TEMP:  31; 6HR MAX TEMP:  62;

SYLVANIA       CLEAR     60  33  36 E8        30.25F
6HR MIN TEMP:  34; 6HR MAX TEMP:  60;

STATESBORO     SUNNY     62  23  23 SE6       30.23F
6HR MIN TEMP:  34; 6HR MAX TEMP:  62;

SAVANNAH       PTSUNNY   62  29  28 E8        30.24F
6HR MIN TEMP:  34; 6HR MAX TEMP:  63;



...SOUTHERN NORTH CAROLINA...

CITY           SKY/WX    TMP DP  RH WIND       PRES   REMARKS
CHARLOTTE      MOSUNNY   55  25  31 S8        30.24F
6HR MIN TEMP:  27; 6HR MAX TEMP:  56;

MONROE         SUNNY     55  23  28 CALM      30.24F
6HR MIN TEMP:  25; 6HR MAX TEMP:  56;

WADESBORO      CLEAR     56  21  25 CALM      30.26S
RUTHERFORDTON  SUNNY     53  25  33 SE3       30.24F
ASHEVILLE      SUNNY     52  12  20 CALM      30.20F
6HR MIN TEMP:  29; 6HR MAX TEMP:  52;


$$




USA.gov is the U.S. government's official web portal to all federal, state and local government web resources and services.